Temperature
4 3 3 4 4 5 5 5 5 6 7 7 7 7 8 9 9 9 10 11 11 12 13 14 14 14 14 14 14 13 13 13 13 12 12 12 12 12 12 12 12 12 11 11
3 3 4 5 5 5 4 4 4 5 7 7 6 7 8 8 9 10 10 11 11 12 12 13 13 14 14 14 14 14 13 13 13 13 13 13 12 12 12 12 12 12 11 11
3 4 5 5 4 4 4 4 4 5 6 6 6 6 7 8 9 10 10 11 11 11 12 12 13 14 14 14 14 14 14 13 13 13 13 12 12 12 12 12 12 12 12 11
3 4 5 4 4 4 4 5 5 5 5 4 5 5 6 7 8 9 9 10 11 11 12 12 13 13 14 14 14 14 14 14 13 13 13 12 12 12 13 13 13 12 12 11
3 4 4 4 5 5 4 5 5 5 4 3 4 4 5 6 7 8 8 10 10 11 12 12 13 13 14 14 14 14 14 14 13 13 13 13 13 13 13 13 12 12 12 12
3 4 4 4 5 5 5 5 4 4 3 3 3 4 4 5 7 8 8 9 10 11 11 12 12 13 14 14 14 14 14 14 14 13 13 13 13 13 13 13 13 12 12 12
2 3 4 4 4 4 4 3 2 2 2 2 4 4 5 6 6 7 8 9 10 11 11 11 12 12 13 13 14 14 14 14 14 13 13 13 13 13 13 13 13 13 13 12
1 2 3 4 4 3 3 3 2 2 2 3 4 4 5 6 7 7 8 9 9 10 10 11 11 12 12 13 14 14 14 14 14 13 13 14 13 13 13 13 13 13 13 14
1 1 3 4 4 4 3 3 3 2 2 2 3 3 4 6 6 6 7 8 8 9 9 10 11 11 12 13 13 14 14 14 14 14 14 14 13 13 13 13 13 13 13 13
1 1 2 3 3 4 3 3 2 2 2 3 3 3 4 6 6 6 6 6 7 8 9 9 10 11 11 12 13 14 14 14 15 14 14 14 14 14 14 13 13 13 13 13
1 0 1 1 2 2 2 2 2 2 1 2 2 4 5 5 5 6 6 6 7 7 8 9 9 10 11 12 12 13 14 14 14 14 14 14 14 14 14 13 13 13 13 13
1 -0 -0 0 2 3 2 2 2 1 1 1 2 4 6 5 5 5 5 6 6 7 7 8 9 9 10 11 12 12 13 14 14 14 14 14 14 14 13 13 13 13 13 13
1 0 -0 0 1 1 1 1 1 1 1 1 1 3 5 4 5 5 5 5 5 6 6 7 8 8 9 10 10 11 12 13 14 14 14 13 13 13 14 14 13 13 12 12
2 0 0 0 1 0 0 1 1 0 1 1 1 3 4 4 4 4 4 4 5 5 5 6 7 8 8 9 10 10 11 12 13 13 13 13 13 13 14 14 13 13 12 12
1 -0 -1 0 1 1 1 1 1 1 1 1 2 2 3 3 3 3 4 4 4 4 5 5 6 7 7 8 9 10 11 11 12 13 13 13 13 13 13 13 13 12 12 12
-1 -1 -0 0 1 1 1 2 2 2 2 1 2 2 3 3 3 3 3 4 4 4 4 5 5 6 7 7 8 9 10 11 11 12 12 12 12 12 12 12 12 12 12 12
-1 -1 -1 -0 0 0 0 1 2 2 2 2 2 3 3 2 3 3 3 3 3 4 4 4 5 6 6 7 8 9 10 10 11 11 12 12 12 12 12 12 12 11 12 12
-1 -1 -1 -1 -1 -1 1 1 2 2 2 2 2 2 2 2 3 3 3 3 3 4 4 4 5 5 6 7 7 8 9 9 10 10 11 11 11 11 11 11 11 11 11 11
-1 -1 -1 -1 -1 -1 1 1 1 1 1 1 1 2 2 2 2 3 4 3 3 4 4 4 5 5 6 7 7 8 8 9 9 10 10 11 11 11 11 11 11 11 11 11
-1 -1 -1 -2 -1 -1 1 1 2 1 1 1 1 1 1 1 1 2 3 3 3 4 4 4 5 6 6 7 7 7 8 8 9 10 10 10 11 11 11 11 11 11 11 11
-2 -2 -2 -1 -1 -0 0 1 1 0 0 1 1 1 1 0 1 2 3 3 3 4 4 4 5 5 6 6 7 7 7 8 9 9 10 10 10 11 11 11 11 11 11 10
-2 -2 -2 -2 -1 -1 1 0 0 0 1 2 1 1 1 1 2 2 2 2 3 3 4 4 5 5 6 6 6 7 7 8 8 9 9 9 10 10 10 10 10 10 10 10
-2 -2 -2 -2 -0 -0 1 1 2 2 1 2 2 1 1 1 1 2 2 2 2 3 3 4 4 5 5 6 6 7 7 8 8 8 9 9 9 9 10 10 10 10 10 10
-3 -2 -3 -3 -2 -1 0 1 1 1 1 1 1 1 1 1 1 1 1 2 2 2 3 3 4 4 5 6 6 7 7 7 8 8 8 8 9 9 9 9 10 10 10 10
-3 -3 -3 -3 -2 -2 -0 1 1 1 1 1 1 1 0 0 0 0 1 1 1 2 2 3 3 4 5 5 6 6 7 7 7 7 8 8 8 9 9 9 9 10 10 10
-4 -3 -3 -2 -1 -2 -2 0 0 -0 -0 -0 -0 -0 -0 -0 -0 -0 0 0 1 1 2 2 3 3 4 5 6 6 6 7 7 7 7 8 8 8 8 8 9 9 9 9
Wind_Speed
2 3 7 9 11 11 9 10 13 12 9 9 14 18 16 11 11 12 11 11 12 14 13 10 11 11 12 14 16 17 18 17 15 14 14 14 13 12 11 10 14 17 17 17
1 9 12 8 8 9 12 14 15 12 9 9 12 17 15 13 13 13 13 13 13 12 10 9 10 11 13 15 17 18 19 18 18 15 14 12 11 9 10 9 12 16 17 17
8 6 5 7 9 10 12 13 12 12 11 9 10 12 12 10 12 14 13 12 11 13 12 10 10 13 13 15 18 18 20 19 19 16 11 10 8 8 9 11 12 13 17 17
8 7 7 7 10 9 12 9 12 12 8 6 4 8 7 8 10 11 12 11 12 11 11 10 10 11 14 16 16 18 19 19 19 18 16 17 15 13 13 12 12 12 15 16
6 4 6 10 10 9 8 6 7 9 8 7 6 7 9 6 9 11 10 11 11 11 11 11 11 12 13 14 14 15 18 20 20 20 19 19 16 13 9 10 12 13 13 14
9 5 5 7 6 7 5 4 6 4 4 7 9 8 8 6 9 8 8 8 8 9 9 10 10 9 11 12 12 13 16 19 20 21 20 20 19 15 14 14 15 14 11 12
6 6 5 3 3 3 2 1 2 2 3 7 5 8 10 8 7 8 8 6 6 6 6 6 6 7 9 11 13 13 15 18 19 21 22 21 20 19 19 17 16 14 12 12
5 7 4 3 5 5 5 6 5 4 5 4 4 8 7 7 7 6 6 5 4 4 5 5 6 7 9 12 13 14 15 17 19 21 22 21 19 16 15 16 15 16 14 14
4 7 4 5 5 5 4 6 5 3 3 4 6 7 8 5 4 4 4 4 4 5 4 5 5 6 7 9 12 14 15 16 17 20 20 20 20 18 16 16 15 14 12 12
4 7 6 5 3 5 5 3 2 4 4 5 6 6 5 3 4 5 5 5 7 7 6 5 5 5 6 7 10 12 14 16 16 18 19 17 19 19 16 15 16 16 15 14
4 5 6 3 4 6 3 3 3 4 3 3 5 6 3 2 1 3 5 6 6 7 6 6 6 5 5 5 6 9 12 13 14 16 17 18 18 18 17 16 17 16 15 15
5 4 6 8 6 4 5 6 5 4 5 4 5 8 3 1 2 5 7 8 8 8 7 6 6 5 4 4 5 7 9 11 13 15 16 17 17 16 17 17 16 16 16 16
4 4 4 6 3 1 3 5 6 4 3 5 6 9 4 5 8 9 10 10 9 8 8 6 5 5 5 5 5 5 7 9 10 12 14 15 15 17 18 17 15 15 15 15
6 6 8 9 7 4 6 7 7 7 6 8 12 14 13 12 12 12 11 11 9 8 8 7 6 6 6 5 5 5 6 7 8 10 12 15 16 17 17 16 15 15 16 16
3 6 9 13 12 9 12 14 12 13 12 11 13 14 16 13 12 11 10 10 10 9 8 7 6 6 6 5 5 4 4 5 6 9 12 13 14 13 13 14 14 14 15 16
3 5 6 11 12 13 16 16 16 16 15 15 16 17 12 11 9 10 10 10 10 9 9 8 7 6 6 6 5 5 4 5 6 8 10 10 10 12 13 14 13 13 14 14
4 5 5 9 7 8 12 13 14 11 9 10 14 14 10 10 11 11 10 9 9 9 9 9 7 7 7 7 6 6 5 4 5 6 8 9 10 11 12 13 13 14 14 13
8 7 6 6 3 10 9 5 8 10 10 9 9 9 9 11 13 11 8 8 9 9 9 9 8 7 7 7 6 5 4 4 5 6 7 9 10 11 11 12 13 13 12 13
13 9 6 4 7 10 8 4 4 7 8 8 9 11 10 10 9 9 7 8 9 9 9 8 8 7 6 7 5 4 4 4 5 6 7 9 10 12 12 12 12 10 11 12
8 9 7 5 6 7 6 4 3 3 6 6 7 9 9 6 6 9 9 9 10 8 7 7 6 6 6 6 4 4 4 5 6 7 7 8 9 11 13 13 11 9 10 11
4 6 10 10 9 8 6 4 2 3 7 6 6 8 7 6 9 11 11 10 9 8 8 7 5 5 6 5 4 4 4 5 5 5 6 7 8 10 10 10 9 10 10 10
7 5 6 6 7 9 3 3 4 6 5 5 6 6 8 9 11 11 11 11 10 9 8 6 5 6 6 5 4 5 5 4 3 5 6 7 7 8 8 10 10 11 12 11
8 8 5 8 8 5 3 6 6 4 5 6 6 8 8 10 11 11 11 11 10 9 8 6 6 6 6 5 5 5 4 2 3 5 6 7 7 8 10 11 12 11 11 10
5 4 5 6 9 8 7 7 6 6 8 9 8 9 8 10 12 12 12 11 10 9 8 6 6 6 7 6 5 5 4 3 4 6 6 7 8 9 9 9 10 10 11 10
7 5 5 8 9 8 7 7 8 9 9 9 9 9 9 10 12 11 11 11 10 9 8 6 6 7 8 6 6 4 4 4 5 6 7 7 7 9 9 8 7 9 9 11
6 7 7 10 8 7 8 7 7 9 10 10 10 11 10 10 12 12 11 10 10 10 8 7 7 7 7 6 6 5 4 4 6 7 7 6 7 8 8 8 6 6 7 11
Wind_Direction
198 215 235 232 226 246 270 272 274 274 281 281 264 268 272 265 258 257 253 246 244 244 242 228 217 206 197 193 192 193 191 187 183 184 184 184 187 184 183 183 181 180 180 178
278 245 245 247 250 254 261 268 272 284 279 277 272 273 271 255 247 246 245 244 242 248 250 233 217 205 199 196 194 194 195 190 188 191 191 189 182 183 183 182 183 183 182 181
230 255 254 253 259 261 258 254 262 273 293 278 277 278 255 250 243 243 240 239 237 238 239 234 221 209 203 201 198 197 196 194 192 188 182 174 169 168 181 189 190 189 187 185
253 261 269 268 264 254 270 253 256 269 276 272 244 278 266 246 249 244 242 238 237 238 233 229 222 213 207 207 202 200 197 195 193 186 185 185 188 193 195 190 189 186 188 188
255 254 255 256 252 247 252 262 258 260 257 263 238 252 277 241 248 249 242 236 237 236 230 226 223 217 212 208 203 202 198 197 194 191 190 191 198 198 183 177 181 186 190 191
256 258 242 240 253 246 257 276 277 263 240 254 227 218 270 231 237 251 250 246 242 241 237 232 226 220 215 210 205 201 200 200 196 194 193 195 198 193 181 184 188 190 192 193
293 274 253 230 266 260 209 209 285 276 232 247 215 216 249 243 239 239 247 249 242 241 240 242 237 229 221 213 206 202 202 204 199 197 198 199 199 196 194 191 192 190 192 196
288 289 253 227 222 231 218 188 211 237 236 267 234 232 249 247 252 253 257 260 260 261 255 251 243 233 228 219 209 203 204 206 203 200 202 201 199 199 201 197 194 194 198 198
248 272 287 267 249 207 214 213 211 246 269 261 250 268 287 265 287 286 291 311 301 281 274 270 263 242 235 226 215 207 206 206 205 204 203 202 200 200 200 197 195 195 194 189
208 269 280 284 265 215 206 194 168 209 250 255 264 255 253 269 272 292 312 312 304 299 292 288 280 264 248 236 222 212 209 208 206 205 204 204 203 202 199 195 198 196 191 185
203 242 288 299 229 223 194 196 208 215 224 244 273 267 234 231 268 303 309 312 315 310 299 298 298 282 265 249 234 218 212 211 206 205 204 203 203 201 197 197 199 196 190 186
210 218 263 256 249 225 207 205 187 216 248 233 260 271 283 296 309 322 316 316 317 309 301 296 295 297 284 261 245 230 222 214 208 205 204 203 200 198 197 198 197 192 190 189
209 217 280 312 314 244 233 221 210 215 223 230 240 265 291 333 329 325 320 317 318 317 308 305 302 296 288 269 250 237 229 221 212 203 201 200 197 197 197 197 193 189 189 187
256 223 223 242 254 245 260 254 227 207 230 243 243 264 289 305 313 316 318 315 312 312 310 306 303 296 288 278 259 246 240 224 212 201 199 200 197 198 197 193 189 187 186 185
239 250 244 254 260 257 259 262 247 230 229 239 256 261 275 289 294 299 304 307 311 314 314 306 301 295 286 283 277 260 250 230 210 200 199 202 198 193 191 187 186 184 183 184
220 250 259 264 255 255 261 260 251 247 242 244 259 267 269 278 285 293 298 303 305 306 307 301 295 296 293 281 275 270 257 237 212 202 200 196 189 187 186 184 180 179 180 179
228 235 253 266 272 272 259 246 240 235 226 229 246 258 282 291 293 290 287 293 296 298 298 295 287 282 281 279 272 259 252 241 216 204 195 188 185 183 183 178 176 179 178 176
224 237 248 266 264 248 251 233 230 238 245 238 251 269 274 278 284 279 273 278 285 290 291 291 286 282 278 275 271 262 247 226 212 202 189 184 182 181 176 174 178 179 176 177
214 220 234 240 253 267 279 261 218 225 248 245 253 272 282 291 297 282 274 274 276 277 280 281 275 274 276 273 263 253 246 222 208 200 190 185 181 178 174 175 176 175 173 174
203 209 226 230 245 257 266 273 245 192 259 266 255 271 284 308 300 289 301 298 290 281 279 281 281 282 277 271 255 232 237 221 212 203 193 185 180 178 177 176 172 168 167 170
190 210 223 234 245 262 268 277 122 184 260 285 262 266 272 262 258 281 298 298 292 286 282 282 279 278 274 271 251 231 231 230 219 194 180 175 177 176 172 167 164 160 158 160
199 208 214 213 230 251 242 149 189 238 270 278 273 272 273 275 279 288 295 296 297 294 287 280 277 279 273 262 242 232 234 238 204 174 171 171 170 167 162 159 160 159 158 160
212 207 206 208 227 249 209 218 242 248 266 275 275 280 282 285 288 292 293 294 293 289 287 281 272 279 276 258 239 234 241 217 181 167 168 168 164 164 163 161 160 160 160 162
249 214 216 249 259 261 264 269 274 272 269 276 278 283 290 286 290 292 293 293 294 290 288 287 282 281 281 275 256 239 220 200 183 170 166 164 162 161 160 162 163 164 165 164
226 205 226 250 269 287 274 263 270 278 282 287 292 288 286 288 290 288 289 290 291 292 287 281 274 273 274 274 263 242 201 183 180 169 164 165 165 160 158 159 165 166 172 171
206 205 222 248 249 248 267 273 278 282 286 289 294 296 292 286 288 291 291 290 290 290 287 280 273 272 273 269 261 236 202 185 176 169 168 167 164 156 153 147 127 112 140 148
Height
1441 1444 1441 1438 1438 1437 1436 1435 1433 1427 1424 1424 1419 1414 1410 1408 1408 1407 1406 1406 1407 1407 1408 1411 1414 1418 1422 1426 1431 1434 1440 1445 1450 1455 1459 1464 1468 1473 1478 1483 1487 1492 1496 1500
1443 1441 1435 1434 1435 1435 1435 1434 1431 1426 1422 1421 1417 1411 1405 1402 1401 1400 1400 1400 1401 1402 1403 1406 1409 1412 1415 1419 1424 1429 1434 1439 1443 1448 1453 1459 1464 1469 1474 1479 1483 1488 1492 1496
1441 1435 1431 1432 1433 1433 1431 1432 1428 1426 1421 1419 1417 1408 1400 1395 1393 1393 1393 1393 1394 1396 1398 1400 1403 1405 1409 1413 1417 1422 1427 1432 1437 1443 1449 1455 1461 1466 1470 1473 1478 1482 1487 1492
1437 1432 1431 1430 1430 1429 1427 1423 1423 1422 1425 1422 1418 1413 1398 1392 1389 1387 1387 1388 1388 1390 1392 1394 1397 1399 1402 1406 1411 1416 1421 1426 1431 1437 1443 1447 1451 1455 1460 1465 1472 1477 1482 1487
1434 1430 1429 1428 1425 1424 1424 1420 1420 1420 1422 1423 1418 1419 1400 1391 1387 1383 1381 1381 1382 1384 1386 1388 1391 1393 1396 1401 1405 1410 1415 1420 1425 1431 1436 1441 1446 1451 1456 1462 1467 1473 1477 1482
1430 1427 1426 1423 1420 1420 1420 1421 1420 1420 1422 1423 1413 1416 1401 1390 1382 1378 1377 1377 1377 1379 1381 1383 1385 1388 1391 1395 1399 1403 1408 1413 1418 1424 1429 1434 1439 1445 1450 1455 1461 1466 1471 1476
1431 1426 1422 1420 1421 1420 1421 1425 1428 1429 1428 1420 1406 1405 1393 1381 1377 1375 1373 1373 1373 1374 1376 1377 1379 1381 1384 1388 1392 1396 1401 1406 1412 1417 1422 1427 1432 1438 1443 1448 1454 1459 1464 1469
1437 1430 1421 1418 1419 1420 1419 1422 1427 1426 1422 1411 1403 1397 1385 1376 1373 1371 1370 1370 1370 1371 1372 1373 1374 1376 1379 1381 1385 1389 1394 1398 1404 1410 1414 1420 1426 1432 1437 1443 1448 1453 1457 1463
1436 1429 1419 1416 1415 1416 1417 1418 1417 1420 1417 1414 1403 1393 1382 1373 1371 1370 1368 1367 1367 1367 1368 1368 1369 1371 1373 1375 1378 1382 1386 1391 1396 1402 1408 1413 1419 1424 1430 1435 1442 1447 1452 1458
1431 1431 1420 1416 1413 1412 1414 1414 1418 1420 1417 1409 1400 1394 1383 1374 1371 1369 1367 1366 1365 1364 1364 1364 1365 1366 1368 1370 1373 1376 1380 1384 1389 1395 1400 1406 1411 1417 1423 1429 1434 1440 1445 1451
1429 1431 1423 1418 1415 1412 1414 1414 1414 1415 1416 1412 1404 1388 1373 1371 1369 1369 1367 1366 1364 1363 1362 1361 1361 1362 1363 1364 1367 1370 1374 1378 1382 1387 1393 1399 1404 1410 1416 1422 1428 1433 1439 1445
1426 1428 1425 1418 1410 1408 1409 1410 1412 1417 1416 1413 1407 1388 1369 1369 1368 1368 1367 1365 1363 1362 1360 1359 1358 1358 1358 1359 1361 1363 1367 1370 1375 1380 1385 1391 1397 1403 1409 1415 1421 1427 1432 1438
1423 1425 1424 1417 1415 1411 1410 1408 1408 1410 1411 1410 1406 1386 1368 1368 1367 1367 1365 1363 1361 1359 1357 1355 1354 1354 1354 1355 1356 1357 1360 1364 1368 1373 1378 1384 1390 1396 1401 1407 1414 1420 1426 1431
1417 1418 1419 1416 1410 1410 1409 1405 1405 1407 1406 1402 1393 1381 1372 1369 1367 1365 1363 1361 1358 1356 1354 1353 1351 1351 1350 1350 1351 1352 1355 1358 1362 1367 1371 1377 1382 1388 1394 1400 1407 1413 1419 1425
1415 1415 1412 1407 1403 1404 1401 1398 1397 1398 1396 1395 1384 1379 1371 1369 1367 1364 1361 1359 1356 1353 1351 1350 1348 1347 1347 1346 1347 1348 1350 1353 1356 1360 1365 1369 1375 1382 1388 1394 1400 1406 1413 1419
1413 1412 1408 1402 1397 1397 1393 1388 1387 1386 1384 1383 1379 1373 1367 1366 1364 1361 1358 1356 1353 1350 1349 1347 1345 1344 1343 1342 1342 1343 1344 1347 1350 1354 1358 1363 1369 1375 1381 1387 1394 1400 1406 1412
1411 1409 1407 1400 1395 1393 1388 1378 1377 1376 1373 1374 1372 1367 1364 1363 1360 1358 1355 1352 1350 1347 1346 1343 1341 1340 1339 1339 1339 1339 1340 1342 1345 1348 1353 1358 1363 1368 1375 1381 1388 1394 1400 1406
1405 1405 1403 1399 1399 1395 1376 1369 1369 1368 1367 1367 1365 1362 1361 1359 1355 1352 1350 1348 1345 1343 1342 1339 1338 1336 1336 1335 1335 1336 1337 1338 1340 1344 1348 1353 1358 1363 1369 1376 1382 1388 1395 1400
1396 1399 1400 1397 1394 1384 1372 1367 1366 1366 1364 1362 1361 1358 1356 1354 1350 1346 1345 1343 1341 1339 1338 1336 1334 1333 1332 1331 1331 1332 1332 1333 1336 1339 1343 1348 1353 1358 1364 1369 1376 1382 1389 1395
1391 1393 1395 1393 1390 1380 1367 1362 1360 1363 1362 1357 1356 1355 1354 1352 1352 1344 1341 1339 1336 1334 1333 1331 1330 1329 1328 1327 1327 1328 1328 1330 1332 1335 1339 1343 1348 1353 1359 1364 1371 1377 1383 1390
1390 1391 1389 1387 1383 1373 1364 1360 1360 1368 1363 1354 1353 1352 1351 1350 1348 1342 1338 1335 1332 1330 1329 1327 1326 1325 1324 1323 1324 1324 1325 1326 1329 1332 1336 1340 1344 1349 1355 1360 1366 1372 1379 1385
1385 1386 1385 1382 1380 1372 1359 1360 1362 1359 1353 1352 1350 1348 1347 1344 1341 1338 1334 1331 1328 1326 1325 1324 1323 1321 1320 1320 1321 1321 1322 1323 1326 1328 1332 1336 1340 1345 1351 1356 1362 1368 1374 1380
1377 1374 1373 1372 1366 1358 1356 1355 1354 1353 1351 1349 1347 1345 1343 1340 1337 1333 1330 1327 1324 1322 1321 1319 1318 1317 1317 1317 1317 1317 1318 1320 1322 1325 1328 1332 1337 1342 1347 1352 1358 1364 1370 1376
1370 1367 1368 1366 1358 1354 1353 1351 1350 1349 1348 1345 1344 1342 1339 1336 1332 1329 1326 1323 1321 1319 1317 1315 1314 1313 1312 1312 1313 1314 1315 1317 1319 1322 1325 1329 1333 1338 1344 1349 1354 1360 1365 1371
1364 1364 1363 1359 1354 1351 1348 1347 1346 1345 1343 1341 1338 1337 1335 1332 1328 1326 1322 1319 1317 1314 1313 1311 1310 1309 1308 1308 1309 1311 1312 1314 1316 1319 1322 1326 1330 1335 1340 1346 1351 1356 1362 1367
1357 1358 1358 1353 1349 1349 1345 1343 1342 1340 1338 1336 1334 1331 1328 1327 1323 1320 1317 1315 1312 1310 1308 1307 1306 1305 1304 1304 1305 1307 1308 1310 1313 1316 1319 1323 1327 1332 1337 1342 1348 1354 1360 1366